Location: Emblem
(62.4273°N, 6.4710°E)
Time: 01:20:14
(UTC+02:00)

UWE-3 - Pass Details

Date: 25 March 2023
Orbit: 577 x 669 km, 97.7° (Epoch: 06 June)

Event Time Altitude Azimuth Distance (km) Brightness Sun altitude
Rises 01:52:10 0° 23° (NNE) 3,033 ? -24.5°
Reaches altitude 10° 01:55:47 10° 52° (NE) 2,102 ? -24.4°
Maximum altitude 01:57:45 13° 78° (ENE) 1,923 ? -24.3°
Drops below altitude 10° 01:59:42 10° 104° (ESE) 2,077 ? -24.2°
Enters shadow 02:01:08 - 118° (ESE) 2,367 ? -24.1°
